Regional Weather Roundup
Issued by NWS

Home | Current Version | Previous Version | Graphics & Text | Print | Product List | Glossary On
Versions: 1 2 3 4 5 6 7 8 9 10 11 12 13 14 15 16 17 18 19 20 21 22 23 24 25 26 27 28 29 30 31 32 33 34 35 36 37 38 39 40 41 42 43 44 45 46 47 48 49 50
000
ASUS45 KABQ 291201
RWRNM
WEATHER ROUNDUP FOR NEW MEXICO
NATIONAL WEATHER SERVICE ALBUQUERQUE NM
600 AM MDT SUN MAR 29 2015

NOTE: "FAIR" MEANS FEW OR NO CLOUDS BELOW 12,000 FEET AGL WITH NO
       SIGNIFICANT WEATHER OR OBSTRUCTIONS TO VISION.

      THIS PRODUCT IS RELEASED AS TWO VERSIONS.  ONE VERSION NEAR
      THE TOP OF THE HOUR CONTAINING PRELIMINARY DATA FROM ALBUQUERQUE
      AND OTHER STATIONS.  A FINAL VERSION WITH ADDITIONAL DATA IS
      ISSUED ABOUT 10 MINUTES AFTER THE HOUR.

NMZ501-503-504-510>518-291300-
NORTHWEST PLATEAU/NORTHCENTRAL MOUNTAINS

CITY           SKY/WX    TMP DP  RH WIND       PRES   REMARKS
FARMINGTON     CLEAR     36  20  52 E6        30.19R WCI  31
6HR MIN TEMP:  35; 6HR MAX TEMP:  45;

SANTA FE       CLEAR     35  18  49 N5        30.22R WCI  31
6HR MIN TEMP:  34; 6HR MAX TEMP:  53;

TAOS           CLEAR     28  16  59 N9        30.25S WCI  20

$$
NMZ402-403-502-505>509-291300-
WESTCENTRAL MOUNTAINS/SOUTHWEST MOUNTAINS

CITY           SKY/WX    TMP DP  RH WIND       PRES   REMARKS
GALLUP         CLEAR     35  14  42 E3        30.28R
6HR MIN TEMP:  31; 6HR MAX TEMP:  44;


$$
NMZ407-409-411-412-291300-
SOUTHERN DESERTS

CITY           SKY/WX    TMP DP  RH WIND       PRES   REMARKS
DEMING         PTCLDY    47  14  26 SW8       30.16R
6HR MIN TEMP:  44; 6HR MAX TEMP:  63;

ALAMOGORDO     PTCLDY    50  10  20 NE12      30.13R
T OR C         CLEAR     56   3  11 NW10      30.17R
6HR MIN TEMP:  56; 6HR MAX TEMP:  67;


$$
NMZ519>523-291300-
CENTRAL VALLEYS/CENTRAL HIGHLANDS

CITY           SKY/WX    TMP DP  RH WIND       PRES   REMARKS
ALBUQUERQUE    CLEAR     46  14  27 SE7       30.20R
6HR MIN TEMP:  46; 6HR MAX TEMP:  64;

DOUBLE EAGLE   CLEAR     45  16  31 CALM      30.22R
CLINES CORNERS CLEAR     40  15  36 W14       30.22R WCI  32
6HR MIN TEMP:  40; 6HR MAX TEMP:  49;

BELEN          FAIR      52  14  22 W9        30.19R
6HR MIN TEMP:  50; 6HR MAX TEMP:  64;

SOCORRO        NOT AVBL

$$
NMZ524>526-539-540-291300-
SOUTHCENTRAL MOUNTAINS

CITY           SKY/WX    TMP DP  RH WIND       PRES   REMARKS
RUIDOSO        NOT AVBL

$$
NMZ527>531-291300-
NORTHEAST HIGHLANDS/NORTHEAST PLAINS

CITY           SKY/WX    TMP DP  RH WIND       PRES   REMARKS
LAS VEGAS      CLEAR     46  16  30 CALM      30.20R
6HR MIN TEMP:  46; 6HR MAX TEMP:  56;

RATON          CLEAR     38  21  50 E10       30.15R WCI  31
6HR MIN TEMP:  38; 6HR MAX TEMP:  63;

CLAYTON        CLEAR     57  23  26 N16       30.06R
6HR MIN TEMP:  55; 6HR MAX TEMP:  62;


$$
NMZ532>537-291300-
EASTCENTRAL PLAINS

CITY           SKY/WX    TMP DP  RH WIND       PRES   REMARKS
TUCUMCARI      CLEAR     47  25  42 W10       30.02R
6HR MIN TEMP:  46; 6HR MAX TEMP:  59;

CANNON AFB     NOT AVBL
CLOVIS AIRPORT CLEAR     46  27  46 W12       30.02R

$$
NMZ028-029-538-291300-
SOUTHEAST PLAINS

CITY           SKY/WX    TMP DP  RH WIND       PRES   REMARKS
ROSWELL        PTCLDY    59  18  20 W14       30.04R
6HR MIN TEMP:  48; 6HR MAX TEMP:  66; 6HR PCP: TRACE;

ARTESIA        PTCLDY    50  19  29 N8        30.05R
CARLSBAD       CLEAR     48  33  56 N12       30.03R
6HR MIN TEMP:  48; 6HR MAX TEMP:  64;

HOBBS          CLEAR     45  32  61 W5        30.04R


$$



USA.gov is the U.S. government's official web portal to all federal, state and local government web resources and services.